Starlink 31351

operational
NORAD ID: 58972 Int'l Des: 2024-031 Owner: SPXS Country: US Constellation: starlink
LEOCIRCULAR

About Starlink 31351

Description loading...

Live Position

Loading 3D Globe...

Upcoming Passes

Altitude History

Altitude vs Time

uPlot chart will show altitude changes over time

Two-Line Element Set

1 58972U 24031H 25258.57721748 .00000831 00000-0 40178-4 0 9990
2 58972 53.1619 30.0010 0001015 64.1709 295.9397 15.30196061 89717
Epoch: Sep 15, 2025 • Age: 10 hours

Current Status

Altitude 477.5 km
Velocity 7.63 km/s
Sub-Earth Point 34.58°N, 175.71°W
Launch Date Feb 15, 2024
Age 1.5 years
Type internet

Technical Details

Classification Payload
Mass 730.00 kg
Dry Mass 700.00 kg
Total Mass 730.00 kg
Length 0.30 m
Diameter 4.10 m
Span 29.00 m
Shape Box + pan
Manufacturer SPXS
Bus Type Starlink V2M
Phase Status In Orbit
Owner/State SPXS/US

Large Constellations

Loading constellations...